Lapse_Rate
2.4 3.7 5.1 4.9 5.1 5.5 4.9 4.4 3.8 3.9 4.3 4.2 4.0 4.2 4.6 5.0 5.4 5.5 5.9 5.7 6.1 6.6
3.2 4.3 4.6 4.7 5.6 5.2 4.5 3.8 3.7 4.0 4.4 4.4 4.4 4.6 4.9 5.7 5.7 5.8 6.0 6.3 6.5 6.7
2.6 3.4 3.7 4.9 4.4 4.0 3.9 3.7 3.7 4.3 4.6 4.7 4.8 4.8 5.0 5.5 5.5 6.0 6.6 6.3 6.6 7.1
2.8 3.5 4.8 4.6 4.2 4.1 3.8 3.8 4.2 4.6 4.8 5.0 5.1 5.0 5.6 5.7 5.8 5.8 6.0 6.6 6.7 6.5
3.3 4.3 4.6 4.2 4.1 4.0 3.8 4.1 4.4 4.8 5.0 5.0 4.9 5.3 5.7 6.0 6.0 5.7 6.0 6.4 6.3 6.7
4.4 4.6 4.3 3.8 3.7 3.8 4.0 4.2 4.4 4.7 4.9 5.0 4.8 5.2 5.7 5.8 6.1 6.2 6.3 6.5 6.6 7.2
4.2 4.1 3.8 3.4 3.4 3.6 4.2 4.4 4.6 4.7 4.7 4.5 4.9 5.1 5.4 5.9 6.2 6.6 6.9 6.9 7.4 8.3
3.8 3.4 3.0 3.0 3.3 3.6 4.3 4.3 4.4 4.5 4.5 4.6 5.1 5.4 5.7 6.6 6.9 7.3 7.8 8.3 9.3 9.4
2.4 2.6 2.9 3.1 3.4 3.7 3.7 4.0 4.5 4.6 4.2 4.4 4.9 3.6 4.6 5.1 6.6 7.8 8.6 9.1 9.4 9.7
2.7 2.7 3.1 3.5 3.9 4.0 4.2 4.5 4.8 4.6 4.6 4.9 5.2 3.7 4.3 4.9 6.3 8.3 8.9 9.1 9.5 9.6
3.1 3.2 3.8 4.1 4.1 4.2 4.7 4.9 5.0 4.7 4.8 5.0 4.8 3.3 4.3 5.0 7.2 8.7 9.5 9.6 9.7 9.6
3.8 3.7 4.0 4.3 4.2 4.4 5.1 5.1 4.8 4.8 4.8 4.9 5.5 3.8 4.5 5.6 7.9 9.5 9.6 9.7 9.8 9.7
4.1 4.3 4.2 4.4 4.6 4.5 5.0 5.0 5.0 5.0 4.9 4.0 5.2 4.9 4.8 6.1 9.0 9.4 9.5 9.7 9.7 9.6
4.2 4.4 4.6 4.5 4.7 5.0 5.0 5.0 5.1 5.2 5.6 5.6 5.5 5.8 5.4 6.1 8.5 9.5 9.4 9.3 9.4 9.7
Wind_Speed
14 11 13 14 12 9 8 8 9 8 7 7 7 5 4 2 1 1 2 4 5 5
12 14 14 15 13 10 11 9 10 9 7 6 5 4 2 1 1 2 3 4 5 5
12 12 13 14 14 13 11 11 10 9 7 6 4 3 1 1 1 3 3 4 6 7
12 13 14 13 13 12 12 11 10 8 7 5 3 2 1 1 2 4 5 5 7 8
13 15 14 13 12 12 11 10 9 7 6 4 2 1 1 3 3 5 6 7 8 9
16 15 14 14 13 11 11 9 8 6 5 3 2 1 2 4 5 6 7 7 9 10
16 15 14 13 12 11 10 8 7 5 4 2 0 2 3 5 6 7 8 8 9 10
15 14 14 13 12 10 9 7 5 4 3 1 1 2 5 6 7 8 9 10 10 10
15 14 13 12 11 10 8 6 5 3 2 1 2 4 6 8 8 9 9 10 11 11
14 14 12 12 10 9 7 5 3 2 1 2 3 5 8 10 9 8 9 11 11 11
14 13 12 11 9 7 5 4 2 1 1 3 3 7 9 11 10 8 10 11 12 13
13 12 11 10 8 6 4 3 1 1 2 4 4 6 10 11 9 9 11 11 12 12
11 11 10 9 7 4 3 2 0 1 2 3 6 6 10 11 7 10 9 12 12 16
10 10 9 8 5 4 2 0 1 3 3 4 5 7 11 12 9 8 10 10 11 10
Wind_Direction
152 152 159 159 157 153 153 149 147 135 137 136 137 135 136 136 172 251 275 286 292 295
152 149 156 151 151 147 140 142 141 140 143 142 140 137 144 154 233 258 279 296 292 291
141 142 141 145 143 143 140 140 140 144 147 147 141 141 158 216 225 284 307 306 306 299
135 135 142 139 138 139 138 140 142 147 148 148 144 144 213 261 285 308 313 304 301 303
135 139 137 135 135 138 135 137 140 143 143 137 138 178 290 302 306 310 303 303 306 305
140 138 134 133 133 132 133 133 135 140 138 133 138 267 309 308 304 299 297 301 304 306
137 133 131 130 131 130 131 133 135 131 124 120 23 314 317 304 303 303 298 297 295 299
127 125 128 128 126 126 127 128 131 134 124 80 333 357 323 318 311 301 300 295 295 294
127 126 126 126 127 126 127 132 138 130 94 13 346 346 329 323 311 301 296 299 303 303
126 125 128 128 130 130 134 140 142 115 37 343 342 342 334 323 304 302 302 303 305 306
126 126 130 131 127 129 137 143 134 86 351 328 353 340 330 318 300 301 302 303 306 307
130 130 132 131 127 128 147 148 129 317 332 336 326 340 321 320 315 306 304 307 307 310
128 129 129 126 129 129 133 133 202 316 325 342 315 322 327 328 312 312 315 309 309 308
119 120 118 120 126 135 136 185 317 322 319 307 328 330 329 326 318 317 312 315 310 312